QPF
0.01 0.01 0.02 0.01 0.01 0.00 0.00 0.00 0.01 0.00 0.01 0.01 0.01 0.01 0.01 0.02 0.02 0.03 0.03 0.02 0.02 0.02 0.01 0.01 0.01 0.01 0.01 0.00 0.00 0.00 0.00 0.00 0.00 0.00 0.00 0.00 0.01 0.01 0.00 0.00 0.00 0.01 0.01
0.00 0.01 0.02 0.01 0.01 0.00 0.00 0.00 0.01 0.00 0.00 0.01 0.01 0.01 0.01 0.02 0.02 0.03 0.02 0.02 0.02 0.01 0.01 0.01 0.01 0.00 0.00 0.00 0.00 0.00 0.00 0.00 0.00 0.00 0.00 0.00 0.00 0.01 0.01 0.01 0.01 0.01 0.01
0.00 0.01 0.01 0.01 0.01 0.00 0.00 0.00 0.00 0.00 0.00 0.01 0.01 0.01 0.02 0.02 0.02 0.02 0.02 0.02 0.02 0.01 0.00 0.00 0.00 0.00 0.00 0.00 0.00 0.00 0.00 0.00 0.00 0.00 0.00 0.00 0.00 0.01 0.01 0.01 0.01 0.01 0.01
0.00 0.01 0.01 0.01 0.01 0.00 0.00 0.00 0.00 0.00 0.00 0.01 0.01 0.01 0.02 0.02 0.02 0.03 0.02 0.02 0.01 0.01 0.00 0.00 0.00 0.00 0.00 0.00 0.00 0.00 0.00 0.00 0.00 0.00 0.00 0.00 0.00 0.00 0.00 0.00 0.01 0.01 0.01
0.01 0.01 0.01 0.01 0.01 0.00 0.00 0.00 0.00 0.00 0.00 0.01 0.01 0.01 0.02 0.02 0.03 0.03 0.02 0.01 0.01 0.00 0.00 0.00 0.00 0.00 0.00 0.00 0.00 0.00 0.00 0.00 0.00 0.00 0.00 0.00 0.00 0.00 0.00 0.00 0.00 0.00 0.00
0.01 0.01 0.01 0.01 0.01 0.00 0.00 0.00 0.00 0.00 0.00 0.01 0.01 0.01 0.02 0.02 0.02 0.02 0.01 0.00 0.00 0.00 0.00 0.00 0.00 0.00 0.00 0.00 0.00 0.00 0.00 0.00 0.00 0.00 0.00 0.00 0.00 0.00 0.00 0.00 0.00 0.00 0.00
0.01 0.01 0.01 0.01 0.00 0.00 0.00 0.01 0.01 0.00 0.00 0.01 0.01 0.01 0.01 0.01 0.01 0.01 0.00 0.00 0.00 0.00 0.00 0.00 0.00 0.00 0.00 0.00 0.00 0.00 0.00 0.00 0.00 0.00 0.00 0.00 0.00 0.00 0.00 0.00 0.00 0.00 0.00
0.01 0.02 0.02 0.01 0.00 0.00 0.01 0.01 0.01 0.00 0.00 0.00 0.01 0.01 0.01 0.01 0.01 0.00 0.00 0.00 0.00 0.00 0.00 0.00 0.00 0.00 0.00 0.00 0.00 0.00 0.00 0.00 0.00 0.00 0.00 0.00 0.00 0.00 0.00 0.00 0.00 0.00 0.00
0.02 0.02 0.03 0.02 0.01 0.00 0.01 0.01 0.00 0.00 0.00 0.00 0.00 0.00 0.00 0.00 0.00 0.00 0.00 0.00 0.00 0.00 0.00 0.00 0.00 0.00 0.00 0.00 0.00 0.00 0.00 0.00 0.00 0.00 0.00 0.00 0.00 0.00 0.00 0.00 0.00 0.00 0.00
0.04 0.02 0.02 0.01 0.01 0.00 0.01 0.01 0.00 0.00 0.00 0.00 0.00 0.00 0.00 0.00 0.00 0.00 0.00 0.00 0.00 0.00 0.00 0.00 0.00 0.00 0.00 0.00 0.00 0.00 0.00 0.00 0.00 0.00 0.00 0.00 0.00 0.00 0.00 0.00 0.00 0.00 0.00
0.05 0.03 0.02 0.01 0.01 0.00 0.00 0.01 0.00 0.00 0.00 0.00 0.00 0.00 0.00 0.00 0.00 0.00 0.00 0.00 0.00 0.00 0.00 0.00 0.00 0.00 0.00 0.00 0.00 0.00 0.00 0.00 0.00 0.00 0.00 0.00 0.00 0.00 0.00 0.00 0.00 0.00 0.00
0.05 0.03 0.02 0.01 0.00 0.00 0.01 0.01 0.00 0.00 0.00 0.00 0.00 0.00 0.00 0.00 0.00 0.00 0.00 0.00 0.00 0.00 0.00 0.00 0.00 0.00 0.00 0.00 0.00 0.00 0.00 0.00 0.00 0.00 0.00 0.00 0.00 0.00 0.00 0.00 0.00 0.00 0.00
0.09 0.05 0.02 0.01 0.01 0.01 0.00 0.00 0.00 0.00 0.00 0.00 0.00 0.00 0.00 0.00 0.00 0.00 0.00 0.00 0.00 0.00 0.00 0.00 0.00 0.00 0.00 0.00 0.00 0.00 0.00 0.00 0.00 0.00 0.00 0.00 0.00 0.00 0.00 0.00 0.00 0.00 0.00
0.14 0.08 0.04 0.03 0.01 0.01 0.00 0.01 0.00 0.00 0.00 0.00 0.00 0.00 0.00 0.00 0.00 0.00 0.00 0.00 0.00 0.00 0.00 0.00 0.00 0.00 0.00 0.00 0.00 0.00 0.00 0.00 0.00 0.00 0.00 0.00 0.00 0.00 0.00 0.01 0.01 0.01 0.01
0.15 0.11 0.07 0.05 0.03 0.01 0.01 0.01 0.01 0.01 0.01 0.00 0.00 0.00 0.00 0.00 0.00 0.00 0.00 0.00 0.00 0.00 0.00 0.00 0.00 0.00 0.00 0.00 0.00 0.00 0.00 0.00 0.00 0.00 0.00 0.00 0.00 0.00 0.00 0.01 0.01 0.02 0.02
0.17 0.14 0.11 0.07 0.05 0.04 0.02 0.01 0.01 0.01 0.01 0.00 0.00 0.01 0.00 0.00 0.00 0.00 0.00 0.00 0.00 0.00 0.00 0.00 0.00 0.00 0.00 0.00 0.00 0.00 0.00 0.00 0.00 0.00 0.00 0.00 0.00 0.00 0.00 0.00 0.01 0.02 0.03
0.20 0.20 0.18 0.15 0.11 0.08 0.06 0.06 0.04 0.02 0.03 0.02 0.01 0.01 0.01 0.00 0.00 0.00 0.00 0.00 0.00 0.00 0.00 0.00 0.00 0.00 0.00 0.00 0.00 0.00 0.00 0.00 0.00 0.00 0.00 0.00 0.00 0.00 0.00 0.00 0.01 0.02 0.03
0.24 0.25 0.24 0.20 0.17 0.14 0.11 0.08 0.05 0.03 0.03 0.03 0.03 0.03 0.03 0.02 0.01 0.01 0.01 0.01 0.01 0.00 0.00 0.00 0.00 0.00 0.00 0.00 0.00 0.00 0.00 0.00 0.00 0.00 0.00 0.00 0.00 0.00 0.00 0.00 0.01 0.01 0.02
0.23 0.22 0.25 0.24 0.20 0.20 0.19 0.15 0.12 0.09 0.06 0.05 0.05 0.04 0.03 0.03 0.02 0.01 0.01 0.01 0.01 0.01 0.01 0.01 0.01 0.01 0.01 0.00 0.00 0.00 0.00 0.00 0.00 0.00 0.00 0.00 0.00 0.00 0.00 0.00 0.00 0.00 0.01
0.22 0.22 0.22 0.27 0.29 0.28 0.27 0.22 0.17 0.12 0.10 0.09 0.09 0.09 0.07 0.06 0.03 0.02 0.02 0.03 0.03 0.03 0.03 0.03 0.02 0.01 0.01 0.01 0.00 0.01 0.01 0.01 0.00 0.00 0.00 0.00 0.00 0.00 0.00 0.00 0.00 0.00 0.00
0.20 0.22 0.18 0.18 0.27 0.30 0.27 0.21 0.15 0.13 0.13 0.13 0.13 0.11 0.08 0.08 0.05 0.04 0.04 0.04 0.04 0.04 0.03 0.03 0.02 0.01 0.01 0.01 0.01 0.01 0.01 0.01 0.01 0.01 0.01 0.01 0.00 0.00 0.00 0.00 0.00 0.00 0.00
0.15 0.16 0.18 0.17 0.21 0.23 0.22 0.23 0.23 0.20 0.18 0.16 0.13 0.10 0.08 0.08 0.09 0.09 0.07 0.06 0.05 0.05 0.03 0.03 0.03 0.02 0.03 0.03 0.04 0.05 0.05 0.03 0.02 0.01 0.00 0.00 0.00 0.00 0.00 0.00 0.00 0.00 0.00
0.08 0.12 0.13 0.15 0.17 0.19 0.22 0.26 0.27 0.25 0.20 0.16 0.13 0.12 0.12 0.13 0.12 0.10 0.09 0.10 0.09 0.07 0.06 0.05 0.05 0.05 0.05 0.06 0.06 0.05 0.04 0.03 0.01 0.01 0.00 0.00 0.00 0.00 0.00 0.00 0.00 0.00 0.00
0.04 0.06 0.09 0.12 0.15 0.18 0.22 0.21 0.18 0.15 0.13 0.11 0.11 0.12 0.13 0.13 0.12 0.12 0.11 0.11 0.10 0.09 0.08 0.08 0.08 0.07 0.06 0.04 0.03 0.03 0.04 0.03 0.02 0.01 0.01 0.00 0.00 0.00 0.00 0.00 0.00 0.00 0.00
0.02 0.03 0.06 0.10 0.11 0.13 0.17 0.19 0.21 0.18 0.15 0.16 0.16 0.16 0.14 0.14 0.14 0.12 0.12 0.12 0.10 0.08 0.08 0.07 0.07 0.05 0.04 0.03 0.03 0.02 0.02 0.02 0.02 0.02 0.01 0.01 0.00 0.00 0.00 0.00 0.00 0.00 0.00
0.02 0.03 0.05 0.08 0.11 0.14 0.18 0.20 0.18 0.17 0.16 0.15 0.12 0.12 0.14 0.15 0.14 0.13 0.12 0.12 0.11 0.10 0.10 0.09 0.07 0.06 0.05 0.04 0.03 0.03 0.02 0.02 0.02 0.03 0.03 0.02 0.01 0.00 0.00 0.00 0.00 0.00 0.00
MSLP
1013.21 1013.04 1013.01 1013.13 1013.39 1013.71 1014.04 1014.30 1014.47 1014.54 1014.54 1014.54 1014.58 1014.72 1014.97 1015.32 1015.72 1016.14 1016.51 1016.83 1017.07 1017.26 1017.43 1017.60 1017.79 1018.01 1018.25 1018.48 1018.67 1018.80 1018.86 1018.86 1018.81 1018.76 1018.70 1018.68 1018.68 1018.69 1018.72 1018.74 1018.73 1018.70 1018.65
1012.95 1012.87 1012.93 1013.14 1013.45 1013.82 1014.17 1014.44 1014.61 1014.68 1014.68 1014.69 1014.76 1014.93 1015.21 1015.60 1016.04 1016.48 1016.88 1017.21 1017.47 1017.65 1017.81 1017.97 1018.15 1018.35 1018.57 1018.78 1018.96 1019.09 1019.16 1019.18 1019.16 1019.13 1019.11 1019.10 1019.11 1019.13 1019.14 1019.14 1019.11 1019.07 1019.00
1012.62 1012.63 1012.78 1013.07 1013.46 1013.88 1014.28 1014.58 1014.78 1014.87 1014.90 1014.93 1015.02 1015.21 1015.51 1015.90 1016.35 1016.80 1017.20 1017.52 1017.77 1017.96 1018.11 1018.26 1018.42 1018.62 1018.83 1019.03 1019.22 1019.36 1019.45 1019.50 1019.52 1019.52 1019.53 1019.53 1019.54 1019.55 1019.55 1019.53 1019.49 1019.43 1019.36
1012.32 1012.41 1012.64 1013.01 1013.46 1013.94 1014.39 1014.74 1014.97 1015.10 1015.17 1015.22 1015.33 1015.53 1015.83 1016.21 1016.64 1017.06 1017.44 1017.75 1017.98 1018.16 1018.31 1018.46 1018.63 1018.83 1019.04 1019.26 1019.45 1019.61 1019.74 1019.82 1019.87 1019.91 1019.93 1019.94 1019.95 1019.95 1019.92 1019.88 1019.82 1019.76 1019.70
1012.16 1012.31 1012.60 1013.02 1013.52 1014.04 1014.52 1014.91 1015.18 1015.34 1015.44 1015.52 1015.65 1015.85 1016.13 1016.49 1016.89 1017.28 1017.62 1017.91 1018.13 1018.31 1018.46 1018.62 1018.81 1019.01 1019.24 1019.47 1019.69 1019.87 1020.02 1020.13 1020.21 1020.27 1020.30 1020.32 1020.31 1020.29 1020.24 1020.18 1020.12 1020.07 1020.02
1012.20 1012.39 1012.71 1013.15 1013.67 1014.20 1014.69 1015.09 1015.37 1015.57 1015.69 1015.81 1015.95 1016.15 1016.43 1016.76 1017.12 1017.47 1017.79 1018.05 1018.26 1018.44 1018.61 1018.79 1018.99 1019.21 1019.46 1019.70 1019.93 1020.14 1020.31 1020.44 1020.54 1020.60 1020.64 1020.65 1020.63 1020.58 1020.52 1020.44 1020.38 1020.34 1020.32
1012.42 1012.65 1012.98 1013.42 1013.92 1014.43 1014.89 1015.27 1015.56 1015.77 1015.92 1016.06 1016.23 1016.45 1016.72 1017.04 1017.37 1017.69 1017.98 1018.23 1018.43 1018.61 1018.80 1018.99 1019.21 1019.45 1019.71 1019.96 1020.20 1020.41 1020.59 1020.73 1020.83 1020.90 1020.93 1020.93 1020.89 1020.82 1020.74 1020.66 1020.61 1020.58 1020.59
1012.77 1013.02 1013.37 1013.79 1014.25 1014.70 1015.12 1015.46 1015.73 1015.94 1016.11 1016.29 1016.49 1016.74 1017.03 1017.35 1017.67 1017.97 1018.24 1018.47 1018.67 1018.86 1019.05 1019.26 1019.49 1019.74 1019.99 1020.25 1020.48 1020.68 1020.85 1020.99 1021.09 1021.15 1021.17 1021.15 1021.10 1021.03 1020.94 1020.86 1020.80 1020.79 1020.82
1013.13 1013.43 1013.79 1014.19 1014.60 1015.00 1015.35 1015.64 1015.89 1016.09 1016.29 1016.50 1016.75 1017.04 1017.36 1017.69 1018.01 1018.31 1018.57 1018.79 1018.98 1019.17 1019.36 1019.57 1019.80 1020.05 1020.29 1020.53 1020.74 1020.93 1021.08 1021.20 1021.29 1021.34 1021.36 1021.33 1021.28 1021.19 1021.10 1021.02 1020.97 1020.97 1021.01
1013.39 1013.75 1014.14 1014.53 1014.91 1015.25 1015.55 1015.80 1016.02 1016.23 1016.45 1016.71 1017.00 1017.34 1017.69 1018.05 1018.38 1018.67 1018.92 1019.14 1019.33 1019.51 1019.69 1019.90 1020.11 1020.34 1020.56 1020.77 1020.96 1021.12 1021.25 1021.35 1021.42 1021.46 1021.47 1021.45 1021.40 1021.32 1021.23 1021.16 1021.11 1021.10 1021.14
1013.46 1013.91 1014.34 1014.75 1015.11 1015.42 1015.68 1015.91 1016.12 1016.34 1016.60 1016.90 1017.25 1017.62 1018.01 1018.39 1018.73 1019.02 1019.26 1019.47 1019.65 1019.82 1019.99 1020.18 1020.38 1020.59 1020.78 1020.96 1021.11 1021.23 1021.34 1021.42 1021.48 1021.51 1021.52 1021.50 1021.46 1021.39 1021.31 1021.24 1021.19 1021.18 1021.21
1013.33 1013.85 1014.35 1014.79 1015.17 1015.48 1015.73 1015.96 1016.18 1016.43 1016.72 1017.07 1017.46 1017.87 1018.28 1018.67 1019.01 1019.29 1019.53 1019.72 1019.89 1020.05 1020.22 1020.40 1020.58 1020.76 1020.92 1021.07 1021.18 1021.28 1021.35 1021.41 1021.45 1021.48 1021.49 1021.48 1021.44 1021.38 1021.31 1021.25 1021.20 1021.17 1021.19
1013.01 1013.61 1014.17 1014.65 1015.06 1015.39 1015.67 1015.92 1016.18 1016.47 1016.81 1017.19 1017.61 1018.04 1018.46 1018.84 1019.18 1019.45 1019.67 1019.86 1020.02 1020.18 1020.35 1020.52 1020.69 1020.85 1020.99 1021.11 1021.20 1021.26 1021.30 1021.34 1021.36 1021.37 1021.38 1021.37 1021.34 1021.29 1021.23 1021.17 1021.12 1021.09 1021.09
1012.59 1013.23 1013.82 1014.34 1014.79 1015.17 1015.50 1015.80 1016.11 1016.45 1016.83 1017.25 1017.68 1018.12 1018.53 1018.90 1019.21 1019.47 1019.69 1019.87 1020.04 1020.21 1020.38 1020.56 1020.73 1020.89 1021.01 1021.11 1021.17 1021.20 1021.21 1021.22 1021.21 1021.21 1021.20 1021.18 1021.15 1021.11 1021.06 1021.00 1020.95 1020.93 1020.92
1012.14 1012.77 1013.38 1013.92 1014.41 1014.83 1015.22 1015.59 1015.97 1016.37 1016.79 1017.23 1017.67 1018.09 1018.48 1018.82 1019.12 1019.36 1019.58 1019.77 1019.96 1020.15 1020.35 1020.54 1020.72 1020.88 1021.00 1021.08 1021.12 1021.12 1021.10 1021.07 1021.04 1021.01 1020.97 1020.94 1020.90 1020.86 1020.82 1020.77 1020.73 1020.71 1020.72
1011.75 1012.33 1012.90 1013.44 1013.94 1014.42 1014.87 1015.31 1015.76 1016.22 1016.68 1017.13 1017.57 1017.97 1018.33 1018.64 1018.91 1019.15 1019.37 1019.58 1019.80 1020.03 1020.26 1020.48 1020.68 1020.85 1020.97 1021.04 1021.06 1021.04 1020.99 1020.92 1020.85 1020.79 1020.73 1020.68 1020.63 1020.59 1020.55 1020.52 1020.50 1020.50 1020.52
1011.45 1011.93 1012.43 1012.94 1013.45 1013.96 1014.47 1014.99 1015.51 1016.02 1016.52 1016.98 1017.40 1017.77 1018.10 1018.38 1018.63 1018.86 1019.09 1019.33 1019.59 1019.86 1020.13 1020.38 1020.61 1020.79 1020.92 1020.98 1020.99 1020.95 1020.87 1020.78 1020.68 1020.58 1020.50 1020.43 1020.37 1020.33 1020.31 1020.30 1020.31 1020.34 1020.39
1011.25 1011.60 1012.01 1012.47 1012.96 1013.50 1014.06 1014.65 1015.23 1015.79 1016.31 1016.78 1017.18 1017.52 1017.81 1018.06 1018.29 1018.52 1018.76 1019.03 1019.33 1019.64 1019.95 1020.24 1020.49 1020.69 1020.82 1020.88 1020.89 1020.84 1020.75 1020.64 1020.53 1020.41 1020.31 1020.24 1020.18 1020.15 1020.15 1020.17 1020.22 1020.28 1020.36
1011.09 1011.33 1011.64 1012.03 1012.51 1013.06 1013.67 1014.30 1014.93 1015.54 1016.08 1016.54 1016.92 1017.23 1017.48 1017.69 1017.90 1018.13 1018.39 1018.69 1019.01 1019.36 1019.70 1020.02 1020.29 1020.51 1020.65 1020.72 1020.74 1020.69 1020.61 1020.51 1020.40 1020.29 1020.19 1020.13 1020.09 1020.09 1020.12 1020.18 1020.26 1020.36 1020.46
1010.94 1011.07 1011.29 1011.64 1012.09 1012.65 1013.29 1013.97 1014.64 1015.26 1015.81 1016.26 1016.62 1016.89 1017.10 1017.29 1017.48 1017.70 1017.97 1018.28 1018.64 1019.00 1019.37 1019.70 1019.99 1020.23 1020.39 1020.49 1020.52 1020.51 1020.46 1020.38 1020.30 1020.22 1020.16 1020.12 1020.12 1020.16 1020.23 1020.33 1020.45 1020.58 1020.70
1010.73 1010.79 1010.96 1011.26 1011.71 1012.27 1012.93 1013.63 1014.33 1014.96 1015.51 1015.94 1016.26 1016.49 1016.67 1016.83 1017.01 1017.23 1017.50 1017.82 1018.19 1018.57 1018.94 1019.29 1019.60 1019.85 1020.04 1020.17 1020.25 1020.29 1020.29 1020.27 1020.24 1020.22 1020.21 1020.22 1020.27 1020.36 1020.48 1020.62 1020.77 1020.92 1021.05
1010.45 1010.47 1010.61 1010.90 1011.34 1011.91 1012.57 1013.29 1013.98 1014.62 1015.15 1015.55 1015.85 1016.05 1016.20 1016.34 1016.51 1016.72 1016.99 1017.32 1017.69 1018.08 1018.46 1018.82 1019.15 1019.42 1019.65 1019.83 1019.97 1020.07 1020.14 1020.19 1020.23 1020.27 1020.32 1020.40 1020.51 1020.65 1020.81 1021.00 1021.18 1021.34 1021.47
1010.07 1010.10 1010.24 1010.53 1010.96 1011.53 1012.19 1012.90 1013.58 1014.20 1014.71 1015.09 1015.37 1015.55 1015.69 1015.83 1016.00 1016.22 1016.50 1016.83 1017.20 1017.60 1017.99 1018.36 1018.70 1019.01 1019.28 1019.51 1019.71 1019.89 1020.03 1020.16 1020.27 1020.38 1020.49 1020.63 1020.79 1020.98 1021.19 1021.41 1021.61 1021.78 1021.89
1009.62 1009.68 1009.83 1010.12 1010.55 1011.11 1011.76 1012.44 1013.10 1013.70 1014.19 1014.56 1014.83 1015.02 1015.18 1015.33 1015.52 1015.77 1016.07 1016.41 1016.80 1017.20 1017.60 1017.98 1018.35 1018.69 1019.00 1019.29 1019.55 1019.79 1020.00 1020.19 1020.36 1020.52 1020.68 1020.86 1021.06 1021.29 1021.53 1021.77 1022.00 1022.17 1022.27
1009.13 1009.22 1009.39 1009.69 1010.11 1010.64 1011.26 1011.91 1012.54 1013.12 1013.59 1013.97 1014.26 1014.49 1014.69 1014.89 1015.13 1015.42 1015.76 1016.14 1016.54 1016.96 1017.37 1017.77 1018.16 1018.53 1018.88 1019.21 1019.53 1019.81 1020.06 1020.29 1020.49 1020.67 1020.86 1021.05 1021.27 1021.52 1021.78 1022.04 1022.27 1022.45 1022.56
1008.64 1008.75 1008.93 1009.22 1009.62 1010.13 1010.71 1011.32 1011.93 1012.48 1012.96 1013.37 1013.70 1014.00 1014.27 1014.56 1014.88 1015.24 1015.63 1016.05 1016.49 1016.92 1017.35 1017.77 1018.17 1018.56 1018.94 1019.30 1019.64 1019.94 1020.21 1020.44 1020.64 1020.81 1020.99 1021.17 1021.39 1021.63 1021.89 1022.17 1022.42 1022.62 1022.74
Thickness
5754 5755 5754 5752 5751 5750 5749 5748 5747 5746 5745 5745 5744 5744 5743 5741 5740 5739 5737 5736 5734 5733 5731 5729 5728 5726 5725 5723 5722 5721 5720 5719 5718 5718 5717 5717 5717 5716 5715 5714 5713 5712 5711
5755 5753 5751 5750 5748 5747 5746 5745 5744 5743 5743 5742 5741 5741 5740 5739 5737 5736 5735 5733 5731 5730 5728 5726 5725 5723 5721 5720 5719 5718 5717 5716 5715 5714 5714 5714 5713 5713 5712 5711 5709 5708 5707
5753 5751 5748 5747 5745 5744 5743 5742 5741 5740 5740 5739 5738 5738 5737 5736 5734 5733 5731 5730 5728 5726 5725 5723 5721 5720 5718 5717 5716 5715 5714 5713 5712 5711 5711 5711 5710 5709 5708 5707 5706 5705 5703
5748 5746 5745 5743 5742 5741 5740 5738 5738 5737 5737 5736 5735 5735 5734 5732 5731 5729 5728 5726 5725 5723 5721 5720 5718 5717 5715 5714 5713 5712 5711 5710 5709 5708 5708 5707 5707 5706 5705 5704 5702 5700 5699
5743 5742 5740 5739 5738 5737 5736 5735 5734 5734 5733 5733 5732 5731 5730 5729 5727 5726 5724 5723 5721 5719 5718 5717 5715 5714 5713 5712 5711 5710 5708 5707 5706 5705 5705 5704 5704 5703 5701 5700 5698 5697 5695
5737 5737 5736 5735 5734 5733 5732 5731 5731 5730 5730 5729 5728 5728 5726 5725 5724 5722 5721 5719 5717 5716 5715 5713 5712 5711 5710 5709 5708 5706 5705 5704 5703 5702 5701 5701 5700 5699 5698 5696 5694 5693 5691
5731 5731 5731 5730 5730 5729 5728 5727 5727 5726 5726 5725 5724 5724 5723 5721 5720 5718 5717 5715 5714 5713 5711 5710 5709 5708 5707 5706 5705 5703 5702 5701 5700 5699 5698 5697 5696 5695 5694 5692 5691 5689 5687
5726 5726 5725 5725 5725 5724 5724 5723 5723 5722 5722 5721 5721 5720 5719 5717 5716 5715 5713 5712 5711 5710 5708 5707 5706 5705 5704 5703 5701 5700 5699 5698 5696 5695 5695 5694 5693 5692 5690 5688 5687 5685 5683
5720 5720 5720 5720 5720 5720 5719 5719 5719 5718 5718 5717 5717 5716 5715 5713 5712 5711 5710 5709 5708 5706 5705 5703 5703 5702 5700 5699 5698 5697 5696 5694 5693 5692 5691 5691 5689 5688 5686 5685 5683 5681 5679
5712 5714 5715 5715 5715 5715 5715 5715 5714 5714 5713 5713 5712 5712 5711 5709 5708 5707 5706 5705 5704 5703 5701 5700 5699 5698 5697 5696 5695 5694 5693 5691 5690 5689 5688 5687 5686 5684 5683 5681 5679 5677 5675
5704 5707 5709 5710 5710 5711 5710 5710 5710 5709 5709 5708 5708 5707 5706 5705 5704 5703 5702 5701 5700 5699 5698 5696 5695 5694 5693 5692 5692 5690 5689 5688 5687 5686 5685 5683 5682 5681 5679 5677 5675 5673 5671
5699 5702 5704 5705 5706 5706 5706 5705 5705 5705 5704 5704 5703 5702 5702 5701 5700 5699 5698 5697 5696 5695 5694 5693 5692 5691 5690 5689 5688 5687 5686 5684 5683 5682 5681 5680 5678 5677 5675 5673 5671 5669 5666
5697 5698 5699 5701 5701 5701 5701 5700 5700 5700 5700 5699 5698 5698 5697 5696 5695 5695 5694 5693 5692 5691 5690 5689 5688 5687 5686 5685 5683 5683 5682 5680 5679 5678 5678 5676 5675 5673 5672 5670 5667 5665 5662
5692 5693 5695 5696 5697 5697 5697 5696 5696 5696 5695 5694 5694 5693 5693 5692 5691 5690 5690 5689 5688 5687 5686 5685 5684 5683 5682 5681 5680 5679 5678 5677 5675 5674 5674 5673 5671 5670 5668 5666 5664 5661 5658
5688 5689 5690 5691 5692 5692 5692 5692 5691 5691 5691 5690 5690 5689 5689 5688 5687 5686 5686 5685 5684 5683 5682 5681 5680 5679 5678 5677 5676 5675 5674 5673 5672 5671 5670 5668 5667 5665 5664 5662 5660 5657 5655
5685 5686 5688 5688 5688 5688 5688 5688 5688 5687 5687 5686 5686 5686 5685 5684 5684 5682 5681 5681 5680 5679 5678 5676 5675 5674 5673 5672 5671 5670 5670 5669 5668 5666 5665 5664 5662 5661 5659 5657 5655 5653 5650
5682 5683 5684 5685 5685 5685 5684 5683 5683 5683 5683 5683 5683 5682 5681 5681 5680 5679 5678 5677 5676 5675 5673 5672 5670 5669 5668 5667 5666 5665 5665 5664 5663 5662 5660 5659 5658 5656 5654 5652 5649 5647 5644
5677 5679 5680 5682 5682 5682 5680 5679 5679 5679 5679 5679 5679 5678 5678 5677 5676 5674 5673 5673 5672 5670 5668 5667 5665 5663 5662 5661 5660 5659 5659 5658 5657 5656 5655 5654 5652 5650 5648 5646 5643 5641 5638
5672 5674 5675 5677 5678 5677 5676 5675 5675 5674 5674 5675 5674 5674 5674 5673 5672 5671 5670 5668 5667 5665 5663 5662 5660 5658 5656 5655 5654 5653 5652 5652 5651 5649 5648 5647 5645 5643 5641 5639 5636 5634 5631
5667 5669 5671 5672 5673 5672 5671 5670 5669 5669 5670 5670 5670 5670 5670 5669 5668 5666 5665 5663 5662 5659 5658 5656 5654 5652 5650 5649 5647 5646 5645 5645 5644 5642 5641 5639 5638 5636 5633 5631 5628 5625 5622
5661 5662 5665 5667 5668 5666 5665 5664 5664 5664 5665 5665 5665 5665 5665 5664 5663 5661 5660 5658 5657 5654 5653 5651 5648 5645 5643 5641 5639 5637 5637 5637 5635 5634 5632 5631 5628 5626 5624 5621 5619 5616 5613
5655 5657 5659 5662 5663 5663 5663 5662 5662 5661 5660 5660 5659 5659 5659 5659 5657 5656 5655 5653 5651 5649 5646 5644 5641 5639 5636 5634 5632 5629 5627 5627 5626 5624 5622 5620 5618 5616 5613 5610 5608 5605 5603
5647 5650 5654 5656 5658 5658 5659 5657 5655 5653 5653 5652 5652 5653 5653 5653 5651 5650 5649 5647 5645 5642 5639 5637 5635 5632 5629 5626 5624 5622 5619 5618 5616 5614 5611 5609 5607 5604 5601 5599 5597 5594 5592
5642 5645 5647 5650 5651 5653 5652 5652 5651 5650 5649 5651 5650 5648 5647 5645 5644 5644 5642 5640 5638 5635 5632 5629 5627 5625 5622 5618 5615 5614 5613 5611 5608 5606 5602 5598 5596 5593 5590 5588 5585 5583 5581
5634 5637 5640 5642 5644 5646 5646 5647 5646 5645 5645 5644 5642 5641 5639 5638 5637 5636 5634 5632 5630 5628 5625 5622 5620 5617 5615 5612 5608 5606 5603 5601 5600 5597 5597 5591 5586 5582 5579 5577 5574 5572 5569
5625 5627 5630 5633 5636 5638 5639 5640 5639 5639 5637 5635 5634 5632 5631 5629 5628 5627 5625 5623 5621 5619 5617 5614 5611 5608 5605 5603 5600 5597 5595 5593 5591 5589 5589 5586 5581 5574 5569 5566 5564 5561 5558